Вернуться в каталог

SL-14 DEB

АктивенPO
NORAD 26015·DEBRIS·🇷🇺 Russia

Запущен Sep 28, 1991 с Plesetsk Cosmodrome

Loading…

Ближайшие Пролёты (ближайшие 24 часа)

TLE

СвежийSource: Space-Track

Эпоха: Sep 14, 2026, 08:46 UTC

1 26015U 91068AA  26257.36529738  .00000031  00000-0  11536-3 0  9996
2 26015  82.4791 218.8691 0067400 330.4040 184.6682 12.62325665609023

Отслеживайте SL-14 DEB в реальном времени с AllMySat

Download on the App Store